Year,Month,Day,Hour,Minute,Value (Times are PST for temperature in C)
2017,06,25,00,00,17.70
2017,06,25,00,01,17.70
2017,06,25,00,02,17.70
2017,06,25,00,03,17.60
2017,06,25,00,04,17.60
2017,06,25,00,05,17.60
2017,06,25,00,06,17.60
2017,06,25,00,07,17.50
2017,06,25,00,08,17.50
2017,06,25,00,09,17.50
2017,06,25,00,10,17.40
2017,06,25,00,11,17.40
2017,06,25,00,12,17.40
2017,06,25,00,13,17.40
2017,06,25,00,14,17.40
2017,06,25,00,15,17.30
2017,06,25,00,16,17.30
2017,06,25,00,17,17.30
2017,06,25,00,18,17.30
2017,06,25,00,19,17.30
2017,06,25,00,20,17.30
2017,06,25,00,21,17.30
2017,06,25,00,22,17.30
2017,06,25,00,23,17.30
2017,06,25,00,24,17.20
2017,06,25,00,25,17.20
2017,06,25,00,26,17.20
2017,06,25,00,27,17.20
2017,06,25,00,28,17.20
2017,06,25,00,29,17.20
2017,06,25,00,30,17.20
2017,06,25,00,31,17.20
2017,06,25,00,32,17.20
2017,06,25,00,33,17.20
2017,06,25,00,34,17.20
2017,06,25,00,35,17.10
2017,06,25,00,36,17.10
2017,06,25,00,37,17.00
2017,06,25,00,38,17.00
2017,06,25,00,39,16.90
2017,06,25,00,40,16.90
2017,06,25,00,41,16.80
2017,06,25,00,42,16.80
2017,06,25,00,43,16.70
2017,06,25,00,44,16.70
2017,06,25,00,45,16.70
2017,06,25,00,46,16.70
2017,06,25,00,47,16.70
2017,06,25,00,48,16.70
2017,06,25,00,49,16.70
2017,06,25,00,50,16.70
2017,06,25,00,51,16.70
2017,06,25,00,52,16.70
2017,06,25,00,53,16.70
2017,06,25,00,54,16.70
2017,06,25,00,55,16.70
2017,06,25,00,56,16.70
2017,06,25,00,57,16.70
2017,06,25,00,58,16.70
2017,06,25,00,59,16.70
2017,06,25,01,00,16.70
2017,06,25,01,01,16.70
2017,06,25,01,02,16.60
2017,06,25,01,03,16.60
2017,06,25,01,04,16.60
2017,06,25,01,05,16.50
2017,06,25,01,06,16.40
2017,06,25,01,07,16.40
2017,06,25,01,08,16.40
2017,06,25,01,09,16.40
2017,06,25,01,10,16.40
2017,06,25,01,11,16.40
2017,06,25,01,12,16.40
2017,06,25,01,13,16.40
2017,06,25,01,14,16.30
2017,06,25,01,15,16.30
2017,06,25,01,16,16.30
2017,06,25,01,17,16.30
2017,06,25,01,18,16.30
2017,06,25,01,19,16.30
2017,06,25,01,20,16.30
2017,06,25,01,21,16.20
2017,06,25,01,22,16.20
2017,06,25,01,23,16.20
2017,06,25,01,24,16.20
2017,06,25,01,25,16.10
2017,06,25,01,26,16.10
2017,06,25,01,27,16.10
2017,06,25,01,28,16.10
2017,06,25,01,29,16.10
2017,06,25,01,30,16.10
2017,06,25,01,31,16.10
2017,06,25,01,32,16.10
2017,06,25,01,33,16.10
2017,06,25,01,34,16.10
2017,06,25,01,35,16.00
2017,06,25,01,36,15.90
2017,06,25,01,37,15.90
2017,06,25,01,38,15.90
2017,06,25,01,39,15.90
2017,06,25,01,40,15.80
2017,06,25,01,41,15.80
2017,06,25,01,42,15.80
2017,06,25,01,43,15.80
2017,06,25,01,44,15.80
2017,06,25,01,45,15.80
2017,06,25,01,46,15.80
2017,06,25,01,47,15.80
2017,06,25,01,48,15.80
2017,06,25,01,49,15.70
2017,06,25,01,50,15.70
2017,06,25,01,51,15.70
2017,06,25,01,52,15.70
2017,06,25,01,53,15.60
2017,06,25,01,54,15.60
2017,06,25,01,55,15.60
2017,06,25,01,56,15.60
2017,06,25,01,57,15.60
2017,06,25,01,58,15.50
2017,06,25,01,59,15.50
2017,06,25,02,00,15.50
2017,06,25,02,01,15.50
2017,06,25,02,02,15.50
2017,06,25,02,03,15.50
2017,06,25,02,04,15.50
2017,06,25,02,05,15.50
2017,06,25,02,06,15.50
2017,06,25,02,07,15.50
2017,06,25,02,08,15.50
2017,06,25,02,09,15.50
2017,06,25,02,10,15.50
2017,06,25,02,11,15.50
2017,06,25,02,12,15.50
2017,06,25,02,13,15.50
2017,06,25,02,14,15.50
2017,06,25,02,15,15.50
2017,06,25,02,16,15.50
2017,06,25,02,17,15.50
2017,06,25,02,18,15.40
2017,06,25,02,19,15.40
2017,06,25,02,20,15.40
2017,06,25,02,21,15.40
2017,06,25,02,22,15.40
2017,06,25,02,23,15.40
2017,06,25,02,24,15.40
2017,06,25,02,25,15.40
2017,06,25,02,26,15.40
2017,06,25,02,27,15.40
2017,06,25,02,28,15.40
2017,06,25,02,29,15.40
2017,06,25,02,30,15.40
2017,06,25,02,31,15.40
2017,06,25,02,32,15.40
2017,06,25,02,33,15.40
2017,06,25,02,34,15.40
2017,06,25,02,35,15.30
2017,06,25,02,36,15.30
2017,06,25,02,37,15.30
2017,06,25,02,38,15.30
2017,06,25,02,39,15.30
2017,06,25,02,40,15.30
2017,06,25,02,41,15.30
2017,06,25,02,42,15.30
2017,06,25,02,43,15.30
2017,06,25,02,44,15.30
2017,06,25,02,45,15.30
2017,06,25,02,46,15.20
2017,06,25,02,47,15.20
2017,06,25,02,48,15.20
2017,06,25,02,49,15.20
2017,06,25,02,50,15.20
2017,06,25,02,51,15.10
2017,06,25,02,52,15.10
2017,06,25,02,53,15.10
2017,06,25,02,54,15.10
2017,06,25,02,55,15.10
2017,06,25,02,56,15.00
2017,06,25,02,57,15.00
2017,06,25,02,58,15.00
2017,06,25,02,59,15.00
2017,06,25,03,00,15.00
2017,06,25,03,01,15.00
2017,06,25,03,02,15.00
2017,06,25,03,03,15.00
2017,06,25,03,04,15.10
2017,06,25,03,05,15.10
2017,06,25,03,06,15.10
2017,06,25,03,07,15.10
2017,06,25,03,08,15.10
2017,06,25,03,09,15.10
2017,06,25,03,10,15.10
2017,06,25,03,11,15.10
2017,06,25,03,12,15.10
2017,06,25,03,13,15.10
2017,06,25,03,14,15.10
2017,06,25,03,15,15.00
2017,06,25,03,16,15.00
2017,06,25,03,17,15.00
2017,06,25,03,18,15.00
2017,06,25,03,19,15.00
2017,06,25,03,20,14.90
2017,06,25,03,21,14.90
2017,06,25,03,22,14.90
2017,06,25,03,23,14.90
2017,06,25,03,24,14.90
2017,06,25,03,25,14.90
2017,06,25,03,26,14.80
2017,06,25,03,27,14.80
2017,06,25,03,28,14.80
2017,06,25,03,29,14.80
2017,06,25,03,30,14.80
2017,06,25,03,31,14.80
2017,06,25,03,32,14.80
2017,06,25,03,33,14.70
2017,06,25,03,34,14.70
2017,06,25,03,35,14.70
2017,06,25,03,36,14.70
2017,06,25,03,37,14.70
2017,06,25,03,38,14.70
2017,06,25,03,39,14.70
2017,06,25,03,40,14.70
2017,06,25,03,41,14.60
2017,06,25,03,42,14.60
2017,06,25,03,43,14.60
2017,06,25,03,44,14.60
2017,06,25,03,45,14.60
2017,06,25,03,46,14.60
2017,06,25,03,47,14.60
2017,06,25,03,48,14.60
2017,06,25,03,49,14.60
2017,06,25,03,50,14.60
2017,06,25,03,51,14.60
2017,06,25,03,52,14.60
2017,06,25,03,53,14.60
2017,06,25,03,54,14.60
2017,06,25,03,55,14.60
2017,06,25,03,56,14.50
2017,06,25,03,57,14.50
2017,06,25,03,58,14.50
2017,06,25,03,59,14.50
2017,06,25,04,00,14.50
2017,06,25,04,01,14.50
2017,06,25,04,02,14.50
2017,06,25,04,03,14.50
2017,06,25,04,04,14.50
2017,06,25,04,05,14.50
2017,06,25,04,06,14.50
2017,06,25,04,07,14.50
2017,06,25,04,08,14.40
2017,06,25,04,09,14.40
2017,06,25,04,10,14.40
2017,06,25,04,11,14.40
2017,06,25,04,12,14.40
2017,06,25,04,13,14.40
2017,06,25,04,14,14.40
2017,06,25,04,15,14.40
2017,06,25,04,16,14.40
2017,06,25,04,17,14.30
2017,06,25,04,18,14.30
2017,06,25,04,19,14.30
2017,06,25,04,20,14.30
2017,06,25,04,21,14.30
2017,06,25,04,22,14.30
2017,06,25,04,23,14.30
2017,06,25,04,24,14.30
2017,06,25,04,25,14.30
2017,06,25,04,26,14.30
2017,06,25,04,27,14.30
2017,06,25,04,28,14.30
2017,06,25,04,29,14.30
2017,06,25,04,30,14.30
2017,06,25,04,31,14.30
2017,06,25,04,32,14.30
2017,06,25,04,33,14.30
2017,06,25,04,34,14.30
2017,06,25,04,35,14.30
2017,06,25,04,36,14.30
2017,06,25,04,37,14.30
2017,06,25,04,38,14.20
2017,06,25,04,39,14.20
2017,06,25,04,40,14.20
2017,06,25,04,41,14.20
2017,06,25,04,42,14.20
2017,06,25,04,43,14.20
2017,06,25,04,44,14.20
2017,06,25,04,45,14.20
2017,06,25,04,46,14.20
2017,06,25,04,47,14.20
2017,06,25,04,48,14.20
2017,06,25,04,49,14.10
2017,06,25,04,50,14.10
2017,06,25,04,51,14.10
2017,06,25,04,52,14.10
2017,06,25,04,53,14.10
2017,06,25,04,54,14.10
2017,06,25,04,55,14.10
2017,06,25,04,56,14.10
2017,06,25,04,57,14.10
2017,06,25,04,58,14.10
2017,06,25,04,59,14.10
2017,06,25,05,00,14.20
2017,06,25,05,01,14.20
2017,06,25,05,02,14.20
2017,06,25,05,03,14.30
2017,06,25,05,04,14.30
2017,06,25,05,05,14.40
2017,06,25,05,06,14.50
2017,06,25,05,07,14.50
2017,06,25,05,08,14.60
2017,06,25,05,09,14.60
2017,06,25,05,10,14.70
2017,06,25,05,11,14.70
2017,06,25,05,12,14.80
2017,06,25,05,13,14.80
2017,06,25,05,14,14.80
2017,06,25,05,15,14.90
2017,06,25,05,16,14.90
2017,06,25,05,17,15.00
2017,06,25,05,18,15.00
2017,06,25,05,19,15.10
2017,06,25,05,20,15.10
2017,06,25,05,21,15.20
2017,06,25,05,22,15.30
2017,06,25,05,23,15.30
2017,06,25,05,24,15.40
2017,06,25,05,25,15.50
2017,06,25,05,26,15.50
2017,06,25,05,27,15.60
2017,06,25,05,28,15.60
2017,06,25,05,29,15.60
2017,06,25,05,30,15.60
2017,06,25,05,31,15.70
2017,06,25,05,32,15.70
2017,06,25,05,33,15.70
2017,06,25,05,34,15.70
2017,06,25,05,35,15.70
2017,06,25,05,36,15.70
2017,06,25,05,37,15.70
2017,06,25,05,38,15.70
2017,06,25,05,39,15.80
2017,06,25,05,40,15.80
2017,06,25,05,41,15.80
2017,06,25,05,42,15.80
2017,06,25,05,43,15.80
2017,06,25,05,44,15.80
2017,06,25,05,45,15.90
2017,06,25,05,46,15.90
2017,06,25,05,47,16.00
2017,06,25,05,48,16.10
2017,06,25,05,49,16.10
2017,06,25,05,50,16.10
2017,06,25,05,51,16.10
2017,06,25,05,52,16.20
2017,06,25,05,53,16.20
2017,06,25,05,54,16.30
2017,06,25,05,55,16.30
2017,06,25,05,56,16.40
2017,06,25,05,57,16.40
2017,06,25,05,58,16.50
2017,06,25,05,59,16.60
2017,06,25,06,00,16.70
2017,06,25,06,01,16.80
2017,06,25,06,02,16.90
2017,06,25,06,03,17.00
2017,06,25,06,04,17.10
2017,06,25,06,05,17.20
2017,06,25,06,06,17.30
2017,06,25,06,07,17.40
2017,06,25,06,08,17.50
2017,06,25,06,09,17.70
2017,06,25,06,10,17.80
2017,06,25,06,11,17.90
2017,06,25,06,12,18.10
2017,06,25,06,13,18.20
2017,06,25,06,14,18.30
2017,06,25,06,15,18.40
2017,06,25,06,16,18.50
2017,06,25,06,17,18.60
2017,06,25,06,18,18.70
2017,06,25,06,19,18.80
2017,06,25,06,20,18.90
2017,06,25,06,21,18.90
2017,06,25,06,22,19.00
2017,06,25,06,23,19.10
2017,06,25,06,24,19.10
2017,06,25,06,25,19.10
2017,06,25,06,26,19.20
2017,06,25,06,27,19.20
2017,06,25,06,28,19.30
2017,06,25,06,29,19.30
2017,06,25,06,30,19.30
2017,06,25,06,31,19.30
2017,06,25,06,32,19.20
2017,06,25,06,33,19.20
2017,06,25,06,34,19.10
2017,06,25,06,35,19.10
2017,06,25,06,36,19.00
2017,06,25,06,37,18.90
2017,06,25,06,38,18.70
2017,06,25,06,39,18.60
2017,06,25,06,40,18.50
2017,06,25,06,41,18.40
2017,06,25,06,42,18.30
2017,06,25,06,43,18.20
2017,06,25,06,44,18.20
2017,06,25,06,45,18.20
2017,06,25,06,46,18.10
2017,06,25,06,47,18.10
2017,06,25,06,48,18.00
2017,06,25,06,49,17.90
2017,06,25,06,50,18.00
2017,06,25,06,51,18.10
2017,06,25,06,52,18.10
2017,06,25,06,53,18.10
2017,06,25,06,54,18.10
2017,06,25,06,55,18.10
2017,06,25,06,56,18.10
2017,06,25,06,57,18.10
2017,06,25,06,58,18.10
2017,06,25,06,59,18.10
2017,06,25,07,00,18.10
2017,06,25,07,01,18.10
2017,06,25,07,02,18.10
2017,06,25,07,03,18.10
2017,06,25,07,04,18.10
2017,06,25,07,05,18.10
2017,06,25,07,06,18.20
2017,06,25,07,07,18.20
2017,06,25,07,08,18.20
2017,06,25,07,09,18.20
2017,06,25,07,10,18.20
2017,06,25,07,11,18.20
2017,06,25,07,12,18.20
2017,06,25,07,13,18.20
2017,06,25,07,14,18.20
2017,06,25,07,15,18.20
2017,06,25,07,16,18.20
2017,06,25,07,17,18.30
2017,06,25,07,18,18.40
2017,06,25,07,19,18.40
2017,06,25,07,20,18.50
2017,06,25,07,21,18.50
2017,06,25,07,22,18.50
2017,06,25,07,23,18.60
2017,06,25,07,24,18.60
2017,06,25,07,25,18.60
2017,06,25,07,26,18.60
2017,06,25,07,27,18.60
2017,06,25,07,28,18.70
2017,06,25,07,29,18.70
2017,06,25,07,30,18.70
2017,06,25,07,31,18.80
2017,06,25,07,32,18.90
2017,06,25,07,33,18.90
2017,06,25,07,34,18.90
2017,06,25,07,35,19.10
2017,06,25,07,36,19.10
2017,06,25,07,37,19.10
2017,06,25,07,38,19.10
2017,06,25,07,39,19.10
2017,06,25,07,40,19.10
2017,06,25,07,41,19.20
2017,06,25,07,42,19.20
2017,06,25,07,43,19.20
2017,06,25,07,44,19.20
2017,06,25,07,45,19.20
2017,06,25,07,46,19.20
2017,06,25,07,47,19.30
2017,06,25,07,48,19.20
2017,06,25,07,49,19.20
2017,06,25,07,50,19.20
2017,06,25,07,51,19.20
2017,06,25,07,52,19.20
2017,06,25,07,53,19.20
2017,06,25,07,54,19.20
2017,06,25,07,55,19.20
2017,06,25,07,56,19.20
2017,06,25,07,57,19.20
2017,06,25,07,58,19.20
2017,06,25,07,59,19.20
2017,06,25,08,00,19.20
2017,06,25,08,01,19.20
2017,06,25,08,02,19.30
2017,06,25,08,03,19.30
2017,06,25,08,04,19.40
2017,06,25,08,05,19.40
2017,06,25,08,06,19.50
2017,06,25,08,07,19.60
2017,06,25,08,08,19.60
2017,06,25,08,09,19.70
2017,06,25,08,10,19.70
2017,06,25,08,11,19.80
2017,06,25,08,12,19.80
2017,06,25,08,13,19.90
2017,06,25,08,14,19.90
2017,06,25,08,15,19.90
2017,06,25,08,16,20.00
2017,06,25,08,17,20.10
2017,06,25,08,18,20.20
2017,06,25,08,19,20.20
2017,06,25,08,20,20.20
2017,06,25,08,21,20.30
2017,06,25,08,22,20.40
2017,06,25,08,23,20.50
2017,06,25,08,24,20.50
2017,06,25,08,25,20.60
2017,06,25,08,26,20.70
2017,06,25,08,27,20.80
2017,06,25,08,28,20.90
2017,06,25,08,29,21.00
2017,06,25,08,30,21.10
2017,06,25,08,31,21.10
2017,06,25,08,32,21.20
2017,06,25,08,33,21.30
2017,06,25,08,34,21.30
2017,06,25,08,35,21.30
2017,06,25,08,36,21.40
2017,06,25,08,37,21.50
2017,06,25,08,38,21.60
2017,06,25,08,39,21.60
2017,06,25,08,40,21.60
2017,06,25,08,41,21.70
2017,06,25,08,42,21.80
2017,06,25,08,43,21.80
2017,06,25,08,44,21.90
2017,06,25,08,45,21.90
2017,06,25,08,46,21.90
2017,06,25,08,47,22.00
2017,06,25,08,48,22.00
2017,06,25,08,49,22.10
2017,06,25,08,50,22.10
2017,06,25,08,51,22.20
2017,06,25,08,52,22.20
2017,06,25,08,53,22.20
2017,06,25,08,54,22.30
2017,06,25,08,55,22.30
2017,06,25,08,56,22.30
2017,06,25,08,57,22.30
2017,06,25,08,58,22.30
2017,06,25,08,59,22.30
2017,06,25,09,00,22.40
2017,06,25,09,01,22.40
2017,06,25,09,02,22.40
2017,06,25,09,03,22.50
2017,06,25,09,04,22.50
2017,06,25,09,05,22.50
2017,06,25,09,06,22.50
2017,06,25,09,07,22.50
2017,06,25,09,08,22.50
2017,06,25,09,09,22.50
2017,06,25,09,10,22.50
2017,06,25,09,11,22.50
2017,06,25,09,12,22.50
2017,06,25,09,13,22.50
2017,06,25,09,14,22.50
2017,06,25,09,15,22.50
2017,06,25,09,16,22.50
2017,06,25,09,17,22.50
2017,06,25,09,18,22.50
2017,06,25,09,19,22.60
2017,06,25,09,20,22.60
2017,06,25,09,21,22.70
2017,06,25,09,22,22.80
2017,06,25,09,23,22.80
2017,06,25,09,24,22.90
2017,06,25,09,25,22.90
2017,06,25,09,26,23.00
2017,06,25,09,27,23.10
2017,06,25,09,28,23.10
2017,06,25,09,29,23.10
2017,06,25,09,30,23.10
2017,06,25,09,31,23.10
2017,06,25,09,32,23.10
2017,06,25,09,33,23.10
2017,06,25,09,34,23.20
2017,06,25,09,35,23.20
2017,06,25,09,36,23.30
2017,06,25,09,37,23.30
2017,06,25,09,38,23.30
2017,06,25,09,39,23.30
2017,06,25,09,40,23.40
2017,06,25,09,41,23.40
2017,06,25,09,42,23.60
2017,06,25,09,43,23.60
2017,06,25,09,44,23.70
2017,06,25,09,45,23.70
2017,06,25,09,46,23.70
2017,06,25,09,47,23.70
2017,06,25,09,48,23.80
2017,06,25,09,49,23.90
2017,06,25,09,50,24.00
2017,06,25,09,51,24.10
2017,06,25,09,52,24.10
2017,06,25,09,53,24.10
2017,06,25,09,54,24.10
2017,06,25,09,55,23.90
2017,06,25,09,56,23.90
2017,06,25,09,57,23.90
2017,06,25,09,58,23.90
2017,06,25,09,59,23.90
2017,06,25,10,00,24.00
2017,06,25,10,01,24.10
2017,06,25,10,02,24.10
2017,06,25,10,03,24.10
2017,06,25,10,04,24.10
2017,06,25,10,05,24.10
2017,06,25,10,06,24.20
2017,06,25,10,07,24.30
2017,06,25,10,08,24.40
2017,06,25,10,09,24.50
2017,06,25,10,10,24.60
2017,06,25,10,11,24.60
2017,06,25,10,12,24.60
2017,06,25,10,13,24.50
2017,06,25,10,14,24.50
2017,06,25,10,15,24.50
2017,06,25,10,16,24.60
2017,06,25,10,17,24.50
2017,06,25,10,18,24.50
2017,06,25,10,19,24.50
2017,06,25,10,20,24.50
2017,06,25,10,21,24.60
2017,06,25,10,22,24.60
2017,06,25,10,23,24.60
2017,06,25,10,24,24.60
2017,06,25,10,25,24.60
2017,06,25,10,26,24.60
2017,06,25,10,27,24.60
2017,06,25,10,28,24.60
2017,06,25,10,29,24.60
2017,06,25,10,30,24.60
2017,06,25,10,31,24.60
2017,06,25,10,32,24.60
2017,06,25,10,33,24.60
2017,06,25,10,34,24.70
2017,06,25,10,35,24.70
2017,06,25,10,36,24.70
2017,06,25,10,37,24.70
2017,06,25,10,38,24.70
2017,06,25,10,39,24.80
2017,06,25,10,40,24.80
2017,06,25,10,41,24.90
2017,06,25,10,42,24.90
2017,06,25,10,43,24.90
2017,06,25,10,44,24.90
2017,06,25,10,45,24.90
2017,06,25,10,46,24.90
2017,06,25,10,47,24.90
2017,06,25,10,48,24.90
2017,06,25,10,49,24.90
2017,06,25,10,50,24.90
2017,06,25,10,51,24.90
2017,06,25,10,52,24.80
2017,06,25,10,53,24.70
2017,06,25,10,54,24.70
2017,06,25,10,55,24.60
2017,06,25,10,56,24.50
2017,06,25,10,57,24.40
2017,06,25,10,58,24.30
2017,06,25,10,59,24.30
2017,06,25,11,00,24.20
2017,06,25,11,01,24.10
2017,06,25,11,02,24.10
2017,06,25,11,03,24.00
2017,06,25,11,04,23.90
2017,06,25,11,05,23.90
2017,06,25,11,06,23.80
2017,06,25,11,07,23.70
2017,06,25,11,08,23.70
2017,06,25,11,09,23.70
2017,06,25,11,10,23.70
2017,06,25,11,11,23.70
2017,06,25,11,12,23.70
2017,06,25,11,13,23.70
2017,06,25,11,14,23.70
2017,06,25,11,15,23.70
2017,06,25,11,16,23.70
2017,06,25,11,17,23.80
2017,06,25,11,18,23.80
2017,06,25,11,19,23.70
2017,06,25,11,20,23.70
2017,06,25,11,21,23.70
2017,06,25,11,22,23.80
2017,06,25,11,23,23.80
2017,06,25,11,24,23.80
2017,06,25,11,25,23.80
2017,06,25,11,26,23.90
2017,06,25,11,27,23.90
2017,06,25,11,28,23.90
2017,06,25,11,29,23.90
2017,06,25,11,30,23.80
2017,06,25,11,31,23.70
2017,06,25,11,32,23.70
2017,06,25,11,33,23.70
2017,06,25,11,34,23.70
2017,06,25,11,35,23.70
2017,06,25,11,36,23.70
2017,06,25,11,37,23.80
2017,06,25,11,38,23.80
2017,06,25,11,39,23.80
2017,06,25,11,40,23.80
2017,06,25,11,41,23.80
2017,06,25,11,42,23.90
2017,06,25,11,43,23.90
2017,06,25,11,44,23.90
2017,06,25,11,45,23.90
2017,06,25,11,46,23.80
2017,06,25,11,47,23.80
2017,06,25,11,48,23.70
2017,06,25,11,49,23.70
2017,06,25,11,50,23.60
2017,06,25,11,51,23.60
2017,06,25,11,52,23.50
2017,06,25,11,53,23.60
2017,06,25,11,54,23.60
2017,06,25,11,55,23.50
2017,06,25,11,56,23.40
2017,06,25,11,57,23.40
2017,06,25,11,58,23.40
2017,06,25,11,59,23.40
2017,06,25,12,00,23.40
2017,06,25,12,01,23.50
2017,06,25,12,02,23.60
2017,06,25,12,03,23.70
2017,06,25,12,04,23.70
2017,06,25,12,05,23.80
2017,06,25,12,06,23.90
2017,06,25,12,07,23.90
2017,06,25,12,08,24.10
2017,06,25,12,09,24.10
2017,06,25,12,10,24.20
2017,06,25,12,11,24.20
2017,06,25,12,12,24.30
2017,06,25,12,13,24.40
2017,06,25,12,14,24.50
2017,06,25,12,15,24.60
2017,06,25,12,16,24.70
2017,06,25,12,17,24.90
2017,06,25,12,18,24.90
2017,06,25,12,19,24.90
2017,06,25,12,20,25.00
2017,06,25,12,21,25.00
2017,06,25,12,22,25.00
2017,06,25,12,23,25.00
2017,06,25,12,24,25.00
2017,06,25,12,25,25.00
2017,06,25,12,26,25.10
2017,06,25,12,27,25.20
2017,06,25,12,28,25.20
2017,06,25,12,29,25.20
2017,06,25,12,30,25.30
2017,06,25,12,31,25.30
2017,06,25,12,32,25.30
2017,06,25,12,33,25.40
2017,06,25,12,34,25.40
2017,06,25,12,35,25.40
2017,06,25,12,36,25.40
2017,06,25,12,37,25.50
2017,06,25,12,38,25.50
2017,06,25,12,39,25.60
2017,06,25,12,40,25.70
2017,06,25,12,41,25.90
2017,06,25,12,42,25.90
2017,06,25,12,43,25.90
2017,06,25,12,44,26.00
2017,06,25,12,45,26.00
2017,06,25,12,46,26.00
2017,06,25,12,47,26.00
2017,06,25,12,48,26.00
2017,06,25,12,49,26.10
2017,06,25,12,50,26.10
2017,06,25,12,51,26.10
2017,06,25,12,52,26.20
2017,06,25,12,53,26.20
2017,06,25,12,54,26.40
2017,06,25,12,55,26.40
2017,06,25,12,56,26.50
2017,06,25,12,57,26.60
2017,06,25,12,58,26.70
2017,06,25,12,59,26.80
2017,06,25,13,00,26.80
2017,06,25,13,01,26.90
2017,06,25,13,02,27.00
2017,06,25,13,03,27.10
2017,06,25,13,04,27.10
2017,06,25,13,05,27.10
2017,06,25,13,06,27.10
2017,06,25,13,07,27.10
2017,06,25,13,08,27.00
2017,06,25,13,09,26.90
2017,06,25,13,10,26.70
2017,06,25,13,11,26.60
2017,06,25,13,12,26.50
2017,06,25,13,13,26.40
2017,06,25,13,14,26.30
2017,06,25,13,15,26.30
2017,06,25,13,16,26.30
2017,06,25,13,17,26.30
2017,06,25,13,18,26.20
2017,06,25,13,19,26.20
2017,06,25,13,20,26.10
2017,06,25,13,21,26.10
2017,06,25,13,22,26.10
2017,06,25,13,23,26.10
2017,06,25,13,24,26.20
2017,06,25,13,25,26.20
2017,06,25,13,26,26.20
2017,06,25,13,27,26.20
2017,06,25,13,28,26.20
2017,06,25,13,29,26.10
2017,06,25,13,30,26.10
2017,06,25,13,31,26.20
2017,06,25,13,32,26.20
2017,06,25,13,33,26.30
2017,06,25,13,34,26.40
2017,06,25,13,35,26.50
2017,06,25,13,36,26.60
2017,06,25,13,37,26.60
2017,06,25,13,38,26.70
2017,06,25,13,39,26.80
2017,06,25,13,40,26.90
2017,06,25,13,41,27.00
2017,06,25,13,42,27.20
2017,06,25,13,43,27.30
2017,06,25,13,44,27.30
2017,06,25,13,45,27.30
2017,06,25,13,46,27.40
2017,06,25,13,47,27.50
2017,06,25,13,48,27.60
2017,06,25,13,49,27.70
2017,06,25,13,50,27.80
2017,06,25,13,51,27.90
2017,06,25,13,52,27.90
2017,06,25,13,53,27.90
2017,06,25,13,54,28.00
2017,06,25,13,55,28.00
2017,06,25,13,56,28.10
2017,06,25,13,57,28.10
2017,06,25,13,58,28.10
2017,06,25,13,59,28.10
2017,06,25,14,00,28.10
2017,06,25,14,01,28.20
2017,06,25,14,02,28.20
2017,06,25,14,03,28.20
2017,06,25,14,04,28.20
2017,06,25,14,05,28.10
2017,06,25,14,06,28.10
2017,06,25,14,07,28.20
2017,06,25,14,08,28.20
2017,06,25,14,09,28.20
2017,06,25,14,10,28.20
2017,06,25,14,11,28.20
2017,06,25,14,12,28.20
2017,06,25,14,13,28.20
2017,06,25,14,14,28.20
2017,06,25,14,15,28.10
2017,06,25,14,16,28.20
2017,06,25,14,17,28.20
2017,06,25,14,18,28.20
2017,06,25,14,19,28.30
2017,06,25,14,20,28.30
2017,06,25,14,21,28.40
2017,06,25,14,22,28.50
2017,06,25,14,23,28.60
2017,06,25,14,24,28.60
2017,06,25,14,25,28.70
2017,06,25,14,26,28.70
2017,06,25,14,27,28.70
2017,06,25,14,28,28.70
2017,06,25,14,29,28.70
2017,06,25,14,30,28.70
2017,06,25,14,31,28.70
2017,06,25,14,32,28.70
2017,06,25,14,33,28.70
2017,06,25,14,34,28.70
2017,06,25,14,35,28.80
2017,06,25,14,36,28.80
2017,06,25,14,37,28.90
2017,06,25,14,38,28.90
2017,06,25,14,39,29.00
2017,06,25,14,40,29.10
2017,06,25,14,41,29.20
2017,06,25,14,42,29.00
2017,06,25,14,43,28.90
2017,06,25,14,44,28.90
2017,06,25,14,45,28.90
2017,06,25,14,46,28.90
2017,06,25,14,47,28.90
2017,06,25,14,48,28.90
2017,06,25,14,49,28.90
2017,06,25,14,50,28.90
2017,06,25,14,51,28.90
2017,06,25,14,52,28.90
2017,06,25,14,53,28.90
2017,06,25,14,54,29.00
2017,06,25,14,55,29.10
2017,06,25,14,56,29.10
2017,06,25,14,57,29.20
2017,06,25,14,58,29.20
2017,06,25,14,59,29.10
2017,06,25,15,00,28.90
2017,06,25,15,01,28.90
2017,06,25,15,02,28.90
2017,06,25,15,03,28.80
2017,06,25,15,04,28.80
2017,06,25,15,05,28.80
2017,06,25,15,06,28.80
2017,06,25,15,07,28.90
2017,06,25,15,08,28.90
2017,06,25,15,09,28.90
2017,06,25,15,10,28.90
2017,06,25,15,11,28.90
2017,06,25,15,12,29.00
2017,06,25,15,13,28.90
2017,06,25,15,14,28.90
2017,06,25,15,15,28.90
2017,06,25,15,16,28.90
2017,06,25,15,17,28.90
2017,06,25,15,18,28.90
2017,06,25,15,19,28.90
2017,06,25,15,20,28.90
2017,06,25,15,21,28.90
2017,06,25,15,22,28.90
2017,06,25,15,23,28.80
2017,06,25,15,24,28.80
2017,06,25,15,25,28.80
2017,06,25,15,26,28.80
2017,06,25,15,27,28.70
2017,06,25,15,28,28.70
2017,06,25,15,29,28.70
2017,06,25,15,30,28.70
2017,06,25,15,31,28.70
2017,06,25,15,32,28.70
2017,06,25,15,33,28.70
2017,06,25,15,34,28.70
2017,06,25,15,35,28.70
2017,06,25,15,36,28.70
2017,06,25,15,37,28.80
2017,06,25,15,38,28.70
2017,06,25,15,39,28.70
2017,06,25,15,40,28.70
2017,06,25,15,41,28.70
2017,06,25,15,42,28.70
2017,06,25,15,43,28.70
2017,06,25,15,44,28.70
2017,06,25,15,45,28.80
2017,06,25,15,46,28.80
2017,06,25,15,47,28.90
2017,06,25,15,48,28.90
2017,06,25,15,49,29.10
2017,06,25,15,50,29.10
2017,06,25,15,51,29.20
2017,06,25,15,52,29.20
2017,06,25,15,53,29.30
2017,06,25,15,54,29.30
2017,06,25,15,55,29.40
2017,06,25,15,56,29.50
2017,06,25,15,57,29.50
2017,06,25,15,58,29.60
2017,06,25,15,59,29.60
2017,06,25,16,00,29.70
2017,06,25,16,01,29.80
2017,06,25,16,02,29.80
2017,06,25,16,03,29.80
2017,06,25,16,04,29.80
2017,06,25,16,05,29.80
2017,06,25,16,06,29.80
2017,06,25,16,07,29.80
2017,06,25,16,08,29.70
2017,06,25,16,09,29.70
2017,06,25,16,10,29.70
2017,06,25,16,11,29.70
2017,06,25,16,12,29.70
2017,06,25,16,13,29.80
2017,06,25,16,14,29.70
2017,06,25,16,15,29.70
2017,06,25,16,16,29.70
2017,06,25,16,17,29.80
2017,06,25,16,18,29.80
2017,06,25,16,19,29.80
2017,06,25,16,20,29.80
2017,06,25,16,21,29.80
2017,06,25,16,22,29.90
2017,06,25,16,23,29.90
2017,06,25,16,24,29.90
2017,06,25,16,25,29.90
2017,06,25,16,26,29.90
2017,06,25,16,27,29.80
2017,06,25,16,28,29.80
2017,06,25,16,29,29.80
2017,06,25,16,30,29.70
2017,06,25,16,31,29.60
2017,06,25,16,32,29.60
2017,06,25,16,33,29.50
2017,06,25,16,34,29.40
2017,06,25,16,35,29.30
2017,06,25,16,36,29.30
2017,06,25,16,37,29.30
2017,06,25,16,38,29.30
2017,06,25,16,39,29.30
2017,06,25,16,40,29.30
2017,06,25,16,41,29.20
2017,06,25,16,42,29.20
2017,06,25,16,43,29.20
2017,06,25,16,44,29.20
2017,06,25,16,45,29.20
2017,06,25,16,46,29.30
2017,06,25,16,47,29.30
2017,06,25,16,48,29.30
2017,06,25,16,49,29.40
2017,06,25,16,50,29.40
2017,06,25,16,51,29.40
2017,06,25,16,52,29.30
2017,06,25,16,53,29.30
2017,06,25,16,54,29.30
2017,06,25,16,55,29.30
2017,06,25,16,56,29.30
2017,06,25,16,57,29.30
2017,06,25,16,58,29.30
2017,06,25,16,59,29.20
2017,06,25,17,00,29.20
2017,06,25,17,01,29.30
2017,06,25,17,02,29.30
2017,06,25,17,03,29.30
2017,06,25,17,04,29.30
2017,06,25,17,05,29.30
2017,06,25,17,06,29.40
2017,06,25,17,07,29.40
2017,06,25,17,08,29.50
2017,06,25,17,09,29.50
2017,06,25,17,10,29.60
2017,06,25,17,11,29.70
2017,06,25,17,12,29.70
2017,06,25,17,13,29.70
2017,06,25,17,14,29.70
2017,06,25,17,15,29.80
2017,06,25,17,16,29.80
2017,06,25,17,17,29.80
2017,06,25,17,18,29.80
2017,06,25,17,19,29.80